Home   Weather   Augusta   Past weeks

Flag for USA Past Weather in Augusta, Georgia, USA — Yesterday and Last 2 Weeks

Now
73 °F

Sunny.


Feels Like: 77 °F
Forecast: 60 / 73 °F
Wind: 9 mph from Southeast

Location: Daniel Field

Current Time: Feb 22, 2017 at 2:46:42 pm

Latest Report: Feb 22, 2017 at 1:53 pm


Visibility: 10 mi

Pressure: 29.87 "Hg

Humidity: 53%

Dew Point: 55 °F

Location of AugustaLocation

Past Weather in Augusta — Graph

°F

Augusta Temperature Yesterday

Maximum temperature yesterday: 72 °F (at 3:53 pm)
Minimum temperature yesterday: 55 °F (at 6:53 am)
Average temperature yesterday: 64 °F

High & Low Weather Summary for the Past Weeks

 TemperatureHumidityPressure
High76 °F (Feb 7, 12:53 pm)90% (Feb 8, 1:01 am)30.49 "Hg (Feb 8, 1:01 am)
Low34 °F (Feb 10, 5:53 am)13% (Feb 13, 2:53 pm)29.54 "Hg (Feb 15, 8:53 am)
Average60 °F55%29.99 "Hg
* Reported Feb 7 12:53 pm — Feb 22 12:53 pm, Augusta, Weather by CustomWeather, © 2017

Note: Actual official high and low records may vary slightly from our data, if they occured in-between our weather recording intervals... More about our weather records

Advertising

Augusta Weather History for the Previous 24 Hours

Scroll right to see more
 ConditionsComfort  
Time TempWeatherWind HumidityBarometerVisibility
12:53 pm
Wed, Feb 22
72 °FPassing clouds.10 mph57%29.89 "Hg10 mi
11:53 am71 °FPartly sunny.5 mph61%29.92 "Hg10 mi
10:53 am68 °FScattered clouds.6 mph65%29.93 "Hg10 mi
9:53 am65 °FSunny.7 mph73%29.92 "Hg10 mi
8:53 am62 °FSunny.7 mph80%29.93 "Hg10 mi
7:53 am61 °FSunny.7 mph83%29.93 "Hg10 mi
6:53 am61 °FMostly cloudy.6 mph83%29.93 "Hg10 mi
5:53 am61 °FPassing clouds.7 mph83%29.93 "Hg10 mi
4:53 am61 °FPassing clouds.6 mph87%29.93 "Hg10 mi
3:53 am61 °FLight rain. Mostly cloudy.5 mph87%29.93 "Hg8 mi
2:53 am61 °FMostly cloudy.No wind90%29.94 "Hg7 mi
2:32 am61 °FLight rain. Fog.5 mph90%29.95 "Hg6 mi
2:21 am61 °FLight rain. Fog.5 mph90%29.96 "Hg4 mi
2:05 am61 °FRain. Fog.3 mph90%29.97 "Hg2 mi
1:53 am61 °FRain. Fog.3 mph90%29.96 "Hg2 mi
1:28 am62 °FLight rain. Fog.5 mph86%29.98 "Hg3 mi
12:53 am62 °FLight rain. Fog.6 mph86%29.97 "Hg3 mi
12:39 am63 °FRain. Mostly cloudy.7 mph81%29.99 "Hg2 mi
11:53 pm
Tue, Feb 21
64 °FMostly cloudy.9 mph75%29.98 "Hg10 mi
11:02 pm65 °FMostly cloudy.9 mph73%30.01 "Hg10 mi
10:53 pm65 °FMostly cloudy.9 mph73%30.00 "Hg10 mi
10:23 pm65 °FMostly cloudy.8 mph73%30.01 "Hg10 mi
9:53 pm65 °FMostly cloudy.9 mph73%30.02 "Hg10 mi
8:53 pm66 °FOvercast.7 mph70%30.02 "Hg10 mi
7:53 pm67 °FMostly cloudy.9 mph66%30.03 "Hg10 mi
6:53 pm68 °FMostly cloudy.10 mph63%30.04 "Hg10 mi
6:29 pm69 °FLight rain. Overcast.6 mph61%30.05 "Hg10 mi
5:53 pm70 °FCloudy.10 mph59%30.03 "Hg10 mi
4:53 pm71 °FMore clouds than sun.10 mph55%30.03 "Hg10 mi
3:53 pm72 °FPartly sunny.10 mph53%30.03 "Hg10 mi
2:53 pm71 °FPartly sunny.7 mph53%30.05 "Hg10 mi
Weather by CustomWeather, © 2017

See weather overviewHow to use our weather pages